SCOUT X-4 R/B, 721

Orbit data source: Space-Track

SCOUT X-4 R/B, 721 is space debris in LEO originally from a launch on Thu, 19 Dec 1963 UTC launched from the Air Force Western Test Range (AFWTR). Debris objects in space refer to the collection of defunct objects orbiting the Earth. Examples of debris include non-operational satellites, rocket bodies, and fragments generated from explosions, collisions, or faulty payload assembly.

Loading next visibility...
Identifier
721, 1963-053B
Orbit
LEO
Country
Flag of USUS
Related business
Manufacturer
ABL
Mission
Spacecraft
Bus & Motor
ALTAIR, Unknown motor
Mass
68 kg wet, 33 kg dry
Launch date (UTC)
1963-12-19 (62 years ago)
Launch vehicle
Unknown
Launch site
Air Force Western Test Range (AFWTR)
Object type
Payload
Rocket body
Debris
Shape & HBR
Unknown
Radar Cross Section
Medium (>0.1 m² and <1 m²)

Expand to show TLE details & history
Last TLE update: 13 hours ago

TLE from 13 hours ago
0 SCOUT X-4 R/B
1   721U 63053B   25306.46594068  .00000282  00000-0  15940-3 0  9999
2   721  78.6019 334.5255 1088302 142.2554 226.0194 12.54969204821619
Epoch: 2025-11-02T11:10Z
TLE epoch observation values (Epoch: 2025-11-02T11:10:57.274Z)
Latitude
-0°
Longitude
124.80559°
Altitude
2,080.58 km
Speed
6.582 km/s
True Right ascension
22h 18m 06s
True Declination
0° 00' 00"
Sunlit
Object was in daylight at epoch
Visualization orbit readout
Latitude
Unknown
Longitude
Unknown
Altitude
Unknown
Speed
Unknown
Apparent Right ascension
Unknown
Apparent Declination
Unknown
Sunlit
N/A
Visualization observer readout
Local Sidereal Time
20:14:37
Azimuth
Unknown
Elevation
Unknown
Doppler factor
Unknown
Orbital elements
Apogee altitude
2,292.24 km
Perigee altitude
590.268 km
Semi-major axis
7,819.391 km
Eccentricity
0.10883
Inclination
78.6019°
RAAN
334.5255°
Arg. of periapsis
142.2554°
True anomaly
217.84983°
Mean anomaly
226.0194°
Eccentric anomaly
221.85849°
Mean motion
3.13895 °/min
Orbital period
114.69 mins
BSTAR
0.0001594
Loading maneuver chart data...
Computing Atmospheric mass density...
Loading historical data...
Loading historical data...
Loading historical data...
Loading historical data...
Loading historical data...
Loading historical data...
Loading historical data...

Documentation

Showing up to 5 results
|